Weather History for Cando, ND

Change the Weather History Date:

Friday, April 19, 2013

  Actual Average (KDVL) Record (KDVL)
Temperature  
Mean Temperature 23 °F -  
Max Temperature 32 °F 57 °F 88 °F (1987)
Min Temperature 14 °F 33 °F 15 °F (2013)
Degree Days  
Heating Degree Days 42    
Moisture  
Dew Point 18 °F    
Average Humidity 78    
Maximum Humidity 100    
Minimum Humidity 60    
Precipitation  
Precipitation 0.00 in - - ()
Sea Level Pressure  
Sea Level Pressure 30.01 in    
Wind  
Wind Speed 14 mph (North)    
Max Wind Speed 23 mph    
Max Gust Speed 23 mph    
Visibility 10 miles    
Events      
Averages and records for this station are not official NWS values.
T = Trace of Precipitation, MM = Missing Value Source: NWS Daily Summary

Daily Weather History Graph

Daily Weather History Graph

Search for Another Location

Airport:

Trip Planner

Search our weather history database for the weather conditions in past years. The results will help you decide how hot, cold, wet, or windy it might be!

Date:

Astronomy

Apr. 19, 2013 Rise Set
Actual Time 6:38 AM CDT 8:34 PM CDT
Civil Twilight 6:05 AM CDT 9:08 PM CDT
Nautical Twilight 5:23 AM CDT 9:49 PM CDT
Astronomical Twilight 4:38 AM CDT 10:35 PM CDT
Moon 1:51 PM CDT (4/19) 3:25 AM CDT (4/19)
Length of Visible Light 15h 03m
Length of Day
13h 55m
First Quarter, 62% of the Moon is Illuminated
Apr 19
First Quarter
Apr 25
Full
May 2
Last Quarter
May 9
New
May 17
First Quarter

Hourly Weather History & Observations

Time (CDT) Temp. Windchill Dew Point Humidity Pressure Visibility Wind Dir Wind Speed Gust Speed Precip Events Conditions
12:15 AM 24.8 °F 12.9 °F 17.6 °F 74% 29.96 in 10.0 mi NNW 13.8 mph - N/A   Clear
12:35 AM 24.8 °F 12.4 °F 17.6 °F 74% 29.96 in 10.0 mi NNW 15.0 mph - N/A   Clear
12:55 AM 23.0 °F 10.1 °F 17.6 °F 80% 29.95 in 10.0 mi NNW 15.0 mph - N/A   Clear
1:15 AM 23.0 °F 10.6 °F 17.6 °F 80% 29.95 in 10.0 mi NNW 13.8 mph - N/A   Clear
1:55 AM 23.0 °F 10.6 °F 17.6 °F 80% 29.94 in 10.0 mi NNW 13.8 mph - N/A   Clear
2:15 AM 21.2 °F 8.3 °F 17.6 °F 86% 29.94 in 10.0 mi NNW 13.8 mph - N/A   Clear
2:35 AM 23.0 °F 10.6 °F 17.6 °F 80% 29.93 in 10.0 mi NNW 13.8 mph - N/A   Clear
2:55 AM 21.2 °F 7.8 °F 15.8 °F 80% 29.93 in 10.0 mi NNW 15.0 mph - N/A   Clear
3:15 AM 21.2 °F 7.8 °F 15.8 °F 80% 29.93 in 10.0 mi NNW 15.0 mph - N/A   Clear
3:35 AM 21.2 °F 8.3 °F 15.8 °F 80% 29.93 in 10.0 mi North 13.8 mph - N/A   Clear
3:55 AM 23.0 °F 9.2 °F 17.6 °F 80% 29.93 in 10.0 mi North 17.3 mph - N/A   Clear
4:15 AM 23.0 °F 9.6 °F 15.8 °F 74% 29.93 in 10.0 mi North 16.1 mph - N/A   Clear
4:35 AM 23.0 °F 9.6 °F 15.8 °F 74% 29.93 in 10.0 mi North 16.1 mph - N/A   Clear
4:55 AM 21.2 °F 7.3 °F 15.8 °F 80% 29.93 in 10.0 mi North 16.1 mph - N/A   Clear
5:15 AM 19.4 °F 5.0 °F 15.8 °F 86% 29.94 in 10.0 mi North 16.1 mph - N/A   Clear
5:35 AM 19.4 °F 4.5 °F 15.8 °F 86% 29.94 in 10.0 mi North 17.3 mph - N/A   Clear
5:55 AM 19.4 °F 6.0 °F 14.0 °F 80% 29.95 in 10.0 mi North 13.8 mph - N/A   Clear
6:15 AM 19.4 °F 4.5 °F 14.0 °F 80% 29.95 in 10.0 mi North 17.3 mph - N/A   Clear
6:35 AM 17.6 °F 2.2 °F 14.0 °F 86% 29.96 in 10.0 mi North 17.3 mph - N/A   Clear
6:55 AM 17.6 °F 2.7 °F 14.0 °F 86% 29.96 in 10.0 mi North 16.1 mph - N/A   Clear
7:15 AM 17.6 °F 2.7 °F 14.0 °F 86% 29.97 in 10.0 mi North 16.1 mph - N/A   Clear
7:35 AM 19.4 °F 5.0 °F 14.0 °F 80% 29.97 in 10.0 mi North 16.1 mph - N/A   Clear
7:55 AM 19.4 °F 3.6 °F 15.8 °F 86% 29.97 in 10.0 mi North 19.6 mph - N/A   Clear
8:15 AM 19.4 °F 4.5 °F 14.0 °F 80% 29.98 in 10.0 mi North 17.3 mph - N/A   Clear
8:35 AM 19.4 °F 5.0 °F 15.8 °F 86% 29.99 in 10.0 mi North 16.1 mph - N/A   Clear
8:55 AM 21.2 °F 7.3 °F 15.8 °F 80% 29.99 in 10.0 mi North 16.1 mph - N/A   Clear
9:15 AM 23.0 °F 8.3 °F 15.8 °F 74% 29.99 in 10.0 mi North 19.6 mph 23.0 mph N/A   Clear
9:35 AM 23.0 °F 8.0 °F 17.6 °F 80% 29.99 in 10.0 mi North 20.7 mph - N/A   Clear
9:55 AM 23.0 °F 8.3 °F 17.6 °F 80% 29.99 in 10.0 mi North 19.6 mph - N/A   Clear
10:35 AM 24.8 °F 9.6 °F 17.6 °F 74% 30.00 in 10.0 mi North 23.0 mph - N/A   Clear
10:55 AM 24.8 °F 10.3 °F 19.4 °F 80% 30.01 in 10.0 mi NNE 20.7 mph - N/A   Clear
11:15 AM 24.8 °F 10.7 °F 19.4 °F 80% 30.01 in 10.0 mi North 19.6 mph - N/A   Clear
11:35 AM 26.6 °F 13.4 °F 19.4 °F 74% 30.01 in 10.0 mi North 18.4 mph - N/A   Clear
11:55 AM 26.6 °F 13.1 °F 19.4 °F 74% 30.02 in 10.0 mi North 19.6 mph - N/A   Clear
12:15 PM 26.6 °F 13.8 °F 19.4 °F 74% 30.02 in 10.0 mi North 17.3 mph - N/A   Clear
12:35 PM 26.6 °F 13.1 °F 19.4 °F 74% 30.02 in 10.0 mi North 19.6 mph - N/A   Clear
12:55 PM 28.4 °F 15.1 °F 19.4 °F 69% 30.03 in 10.0 mi North 20.7 mph - N/A   Clear
1:15 PM 28.4 °F 15.8 °F 19.4 °F 69% 30.03 in 10.0 mi North 18.4 mph - N/A   Clear
1:35 PM 28.4 °F 16.2 °F 19.4 °F 69% 30.03 in 10.0 mi North 17.3 mph 21.9 mph N/A   Clear
1:55 PM 28.4 °F 16.2 °F 19.4 °F 69% 30.03 in 10.0 mi North 17.3 mph - N/A   Clear
2:15 PM 28.4 °F 16.6 °F 19.4 °F 69% 30.03 in 10.0 mi North 16.1 mph - N/A   Clear
2:35 PM 30.2 °F 19.8 °F 19.4 °F 64% 30.03 in 10.0 mi North 13.8 mph - N/A   Clear
2:55 PM 30.2 °F 19.3 °F 17.6 °F 60% 30.03 in 10.0 mi North 15.0 mph - N/A   Clear
3:15 PM 30.2 °F 19.3 °F 19.4 °F 64% 30.04 in 10.0 mi North 15.0 mph - N/A   Clear
3:35 PM 30.2 °F 18.9 °F 17.6 °F 60% 30.04 in 10.0 mi North 16.1 mph - N/A   Clear
3:55 PM 30.2 °F 19.8 °F 19.4 °F 64% 30.04 in 10.0 mi North 13.8 mph - N/A   Clear
4:15 PM 32.0 °F 22.1 °F 19.4 °F 60% 30.04 in 10.0 mi North 13.8 mph - N/A   Clear
4:35 PM 32.0 °F 23.0 °F 19.4 °F 60% 30.04 in 10.0 mi North 11.5 mph - N/A   Clear
4:55 PM 32.0 °F 22.5 °F 19.4 °F 60% 30.04 in 10.0 mi NNW 12.7 mph - N/A   Clear
5:15 PM 32.0 °F 22.1 °F 19.4 °F 60% 30.04 in 10.0 mi North 13.8 mph - N/A   Clear
5:35 PM 32.0 °F 22.5 °F 19.4 °F 60% 30.05 in 10.0 mi North 12.7 mph - N/A   Clear
5:55 PM 32.0 °F 23.6 °F 21.2 °F 64% 30.05 in 10.0 mi NNW 10.4 mph - N/A   Clear
6:15 PM 32.0 °F 23.6 °F 19.4 °F 60% 30.05 in 10.0 mi NNW 10.4 mph - N/A   Clear
6:35 PM 32.0 °F 23.6 °F 21.2 °F 64% 30.05 in 10.0 mi NNW 10.4 mph - N/A   Clear
6:55 PM 28.4 °F 20.4 °F 23.0 °F 80% 30.05 in 10.0 mi NNW 8.1 mph - N/A   Clear
7:15 PM 28.4 °F 20.4 °F 23.0 °F 80% 30.06 in 10.0 mi NW 8.1 mph - N/A   Clear
7:35 PM 28.4 °F 21.2 °F 23.0 °F 80% 30.06 in 10.0 mi NNW 6.9 mph - N/A   Clear
7:55 PM 26.6 °F 18.2 °F 23.0 °F 86% 30.06 in 10.0 mi NNW 8.1 mph - N/A   Clear
8:15 PM 24.8 °F 16.9 °F 21.2 °F 86% 30.06 in 10.0 mi NW 6.9 mph - N/A   Clear
8:35 PM 23.0 °F 15.8 °F 19.4 °F 86% 30.06 in 10.0 mi North 5.8 mph - N/A   Mostly Cloudy
8:55 PM 23.0 °F 15.8 °F 19.4 °F 86% 30.07 in 10.0 mi NE 5.8 mph - N/A   Scattered Clouds
9:15 PM 23.0 °F 17.0 °F 19.4 °F 86% 30.07 in 10.0 mi NNE 4.6 mph - N/A   Clear
9:35 PM 21.2 °F 14.9 °F 19.4 °F 93% 30.08 in 10.0 mi NNE 4.6 mph - N/A   Partly Cloudy
9:55 PM 21.2 °F 14.9 °F 19.4 °F 93% 30.08 in 10.0 mi NNE 4.6 mph - N/A   Scattered Clouds
10:15 PM 19.4 °F 14.3 °F 19.4 °F 100% 30.08 in 10.0 mi NE 3.5 mph - N/A   Partly Cloudy
10:35 PM 21.2 °F 14.9 °F 19.4 °F 93% 30.08 in 10.0 mi NNE 4.6 mph - N/A   Clear
10:55 PM 19.4 °F 14.3 °F 19.4 °F 100% 30.08 in 10.0 mi NE 3.5 mph - N/A   Clear
11:15 PM 15.8 °F - 15.8 °F 100% 30.08 in 10.0 mi Calm Calm - N/A   Clear
11:35 PM 14.0 °F - 12.2 °F 93% 30.08 in 10.0 mi Calm Calm - N/A   Clear
11:55 PM 14.0 °F - 14.0 °F 100% 30.08 in 10.0 mi Calm Calm - N/A   Clear